Time,TemperatureF,DewpointF,PressureIn,WindDirection,WindDirectionDegrees,WindSpeedMPH,WindSpeedGustMPH,Humidity,HourlyPrecipIn,Conditions,Clouds,dailyrainin,SoftwareType,DateUTC
2013-02-04 00:02:00,10.0,6.0,-100.00,ESE,115,6.0,7.0,82,0.00,,,-99.99,,2013-02-04 07:02:00,
2013-02-04 00:11:00,10.0,6.0,-100.00,ESE,105,6.0,7.0,83,0.00,,,-99.99,,2013-02-04 07:11:00,
2013-02-04 00:21:00,10.0,6.0,-100.00,East,95,6.0,7.0,84,0.00,,,-99.99,,2013-02-04 07:21:00,
2013-02-04 00:32:00,10.0,6.0,-100.00,ESE,110,7.0,9.0,84,0.00,,,-99.99,,2013-02-04 07:32:00,
2013-02-04 00:42:00,9.0,6.0,-100.00,East,100,6.0,8.0,85,0.00,,,-99.99,,2013-02-04 07:42:00,
2013-02-04 00:52:00,10.0,6.0,-100.00,East,95,4.0,6.0,85,0.00,,,-99.99,,2013-02-04 07:52:00,
2013-02-04 01:01:00,9.0,5.0,-100.00,East,95,4.0,7.0,86,0.00,,,-99.99,,2013-02-04 08:01:00,
2013-02-04 01:11:00,9.0,6.0,-100.00,ESE,115,5.0,7.0,86,0.00,,,-99.99,,2013-02-04 08:11:00,
2013-02-04 01:21:00,9.0,6.0,-100.00,East,95,4.0,6.0,86,0.00,,,-99.99,,2013-02-04 08:21:00,
2013-02-04 01:31:00,8.0,5.0,-100.00,East,100,5.0,6.0,86,0.00,,,-99.99,,2013-02-04 08:31:00,
2013-02-04 01:42:00,8.0,5.0,-100.00,East,90,4.0,6.0,87,0.00,,,-99.99,,2013-02-04 08:42:00,
2013-02-04 01:52:00,8.0,5.0,-100.00,ESE,105,4.0,7.0,88,0.00,,,-99.99,,2013-02-04 08:52:00,
2013-02-04 02:02:00,8.0,5.0,-100.00,East,90,4.0,4.0,88,0.00,,,-99.99,,2013-02-04 09:02:00,
2013-02-04 02:11:00,7.0,4.0,-100.00,East,95,4.0,6.0,88,0.00,,,-99.99,,2013-02-04 09:11:00,
2013-02-04 02:21:00,7.0,4.0,-100.00,East,85,4.0,5.0,88,0.00,,,-99.99,,2013-02-04 09:21:00,
2013-02-04 02:32:00,6.0,4.0,-100.00,East,95,6.0,7.0,88,0.00,,,-99.99,,2013-02-04 09:32:00,
2013-02-04 02:41:00,6.0,4.0,-100.00,ESE,110,4.0,7.0,88,0.00,,,-99.99,,2013-02-04 09:41:00,
2013-02-04 02:51:00,6.0,4.0,-100.00,East,100,4.0,6.0,89,0.00,,,-99.99,,2013-02-04 09:51:00,
2013-02-04 03:01:00,6.0,4.0,-100.00,ESE,105,6.0,7.0,89,0.00,,,-99.99,,2013-02-04 10:01:00,
2013-02-04 03:11:00,6.0,3.0,-100.00,East,100,6.0,7.0,90,0.00,,,-99.99,,2013-02-04 10:11:00,
2013-02-04 03:21:00,5.0,3.0,-100.00,East,100,7.0,8.0,90,0.00,,,-99.99,,2013-02-04 10:21:00,
2013-02-04 03:32:00,5.0,3.0,-100.00,ESE,105,7.0,8.0,90,0.00,,,-99.99,,2013-02-04 10:32:00,
2013-02-04 03:41:00,5.0,3.0,-100.00,East,85,6.0,8.0,90,0.00,,,-99.99,,2013-02-04 10:41:00,
2013-02-04 03:52:00,5.0,3.0,-100.00,ESE,110,4.0,7.0,90,0.00,,,-99.99,,2013-02-04 10:52:00,
2013-02-04 04:02:00,5.0,3.0,-100.00,East,100,4.0,7.0,90,0.00,,,-99.99,,2013-02-04 11:02:00,
2013-02-04 04:11:00,6.0,4.0,-100.00,East,90,6.0,8.0,91,0.00,,,-99.99,,2013-02-04 11:11:00,
2013-02-04 04:22:00,6.0,4.0,-100.00,ESE,110,4.0,7.0,91,0.00,,,-99.99,,2013-02-04 11:22:00,
2013-02-04 04:32:00,6.0,4.0,-100.00,ESE,105,5.0,7.0,91,0.00,,,-99.99,,2013-02-04 11:32:00,
2013-02-04 04:42:00,5.0,3.0,-100.00,East,95,6.0,6.0,91,0.00,,,-99.99,,2013-02-04 11:42:00,
2013-02-04 04:52:00,6.0,4.0,-100.00,ESE,110,6.0,7.0,91,0.00,,,-99.99,,2013-02-04 11:52:00,
2013-02-04 05:02:00,5.0,3.0,-100.00,East,85,6.0,9.0,91,0.00,,,-99.99,,2013-02-04 12:02:00,
2013-02-04 05:12:00,5.0,3.0,-100.00,East,90,5.0,8.0,91,0.00,,,-99.99,,2013-02-04 12:12:00,
2013-02-04 05:22:00,5.0,3.0,-100.00,East,95,4.0,6.0,92,0.00,,,-99.99,,2013-02-04 12:22:00,
2013-02-04 05:32:00,5.0,3.0,-100.00,East,100,5.0,6.0,91,0.00,,,-99.99,,2013-02-04 12:32:00,
2013-02-04 05:42:00,4.0,2.0,-100.00,East,100,7.0,7.0,92,0.00,,,-99.99,,2013-02-04 12:42:00,
2013-02-04 05:52:00,4.0,2.0,-100.00,East,90,6.0,8.0,92,0.00,,,-99.99,,2013-02-04 12:52:00,
2013-02-04 06:02:00,5.0,3.0,-100.00,East,95,6.0,7.0,92,0.00,,,-99.99,,2013-02-04 13:02:00,
2013-02-04 06:12:00,5.0,3.0,-100.00,East,90,7.0,7.0,92,0.00,,,-99.99,,2013-02-04 13:12:00,
2013-02-04 06:21:00,4.0,3.0,-100.00,East,90,4.0,7.0,92,0.00,,,-99.99,,2013-02-04 13:21:00,
2013-02-04 06:33:00,4.0,2.0,-100.00,East,85,4.0,6.0,92,0.00,,,-99.99,,2013-02-04 13:33:00,
2013-02-04 06:42:00,4.0,2.0,-100.00,East,95,4.0,6.0,92,0.00,,,-99.99,,2013-02-04 13:42:00,
2013-02-04 06:51:00,4.0,2.0,-100.00,East,90,5.0,7.0,92,0.00,,,-99.99,,2013-02-04 13:51:00,
2013-02-04 07:03:00,3.0,2.0,-100.00,East,85,6.0,7.0,92,0.00,,,-99.99,,2013-02-04 14:03:00,
2013-02-04 07:12:00,4.0,2.0,-100.00,East,100,6.0,7.0,92,0.00,,,-99.99,,2013-02-04 14:12:00,
2013-02-04 07:22:00,3.0,2.0,-100.00,East,100,6.0,7.0,92,0.00,,,-99.99,,2013-02-04 14:22:00,
2013-02-04 07:32:00,4.0,2.0,-100.00,East,100,5.0,6.0,92,0.00,,,-99.99,,2013-02-04 14:32:00,
2013-02-04 07:42:00,4.0,2.0,-100.00,East,80,6.0,6.0,92,0.00,,,-99.99,,2013-02-04 14:42:00,
2013-02-04 07:52:00,4.0,2.0,-100.00,ESE,105,4.0,6.0,92,0.00,,,-99.99,,2013-02-04 14:52:00,
2013-02-04 08:03:00,3.0,2.0,-100.00,East,100,5.0,7.0,92,0.00,,,-99.99,,2013-02-04 15:03:00,
2013-02-04 08:12:00,4.0,3.0,-100.00,ENE,70,7.0,9.0,93,0.00,,,-99.99,,2013-02-04 15:12:00,
2013-02-04 08:23:00,6.0,5.0,-100.00,ENE,75,6.0,11.0,93,0.00,,,-99.99,,2013-02-04 15:23:00,
2013-02-04 08:33:00,7.0,6.0,-100.00,East,85,6.0,12.0,93,0.00,,,-99.99,,2013-02-04 15:33:00,
2013-02-04 08:43:00,9.0,8.0,-100.00,East,80,7.0,9.0,93,0.00,,,-99.99,,2013-02-04 15:43:00,
2013-02-04 08:52:00,11.0,9.0,-100.00,ENE,70,6.0,7.0,92,0.00,,,-99.99,,2013-02-04 15:52:00,
2013-02-04 09:03:00,12.0,10.0,-100.00,NE,55,6.0,10.0,92,0.00,,,-99.99,,2013-02-04 16:03:00,
2013-02-04 09:11:00,14.0,12.0,-100.00,ENE,60,4.0,11.0,91,0.00,,,-99.99,,2013-02-04 16:11:00,
2013-02-04 09:22:00,15.0,13.0,-100.00,NE,55,5.0,7.0,89,0.00,,,-99.99,,2013-02-04 16:22:00,
2013-02-04 09:33:00,16.0,13.0,-100.00,East,85,6.0,7.0,86,0.00,,,-99.99,,2013-02-04 16:33:00,
2013-02-04 09:42:00,18.0,14.0,-100.00,East,90,4.0,7.0,82,0.00,,,-99.99,,2013-02-04 16:42:00,
2013-02-04 09:51:00,19.0,13.0,-100.00,ENE,75,7.0,8.0,76,0.00,,,-99.99,,2013-02-04 16:51:00,
2013-02-04 10:02:00,20.0,12.0,-100.00,East,95,6.0,8.0,72,0.00,,,-99.99,,2013-02-04 17:02:00,
2013-02-04 10:11:00,22.0,13.0,-100.00,ENE,75,4.0,6.0,68,0.00,,,-99.99,,2013-02-04 17:11:00,
2013-02-04 10:21:00,24.0,14.0,-100.00,East,90,3.0,5.0,64,0.00,,,-99.99,,2013-02-04 17:21:00,
2013-02-04 10:32:00,24.0,13.0,-100.00,East,100,5.0,6.0,61,0.00,,,-99.99,,2013-02-04 17:32:00,
2013-02-04 10:42:00,26.0,13.0,-100.00,East,95,4.0,6.0,57,0.00,,,-99.99,,2013-02-04 17:42:00,
2013-02-04 10:51:00,26.0,12.0,-100.00,East,95,3.0,6.0,53,0.00,,,-99.99,,2013-02-04 17:51:00,
2013-02-04 11:03:00,27.0,12.0,-100.00,East,80,4.0,5.0,52,0.00,,,-99.99,,2013-02-04 18:03:00,
2013-02-04 11:11:00,28.0,12.0,-100.00,ESE,120,2.0,4.0,50,0.00,,,-99.99,,2013-02-04 18:11:00,
2013-02-04 11:22:00,31.0,14.0,-100.00,West,270,4.0,7.0,47,0.00,,,-99.99,,2013-02-04 18:22:00,
2013-02-04 11:32:00,33.0,14.0,-100.00,WNW,290,5.0,7.0,44,0.00,,,-99.99,,2013-02-04 18:32:00,
2013-02-04 11:42:00,32.0,12.0,-100.00,NW,305,8.0,12.0,42,0.00,,,-99.99,,2013-02-04 18:42:00,
2013-02-04 11:52:00,31.0,11.0,-100.00,WNW,300,11.0,13.0,42,0.00,,,-99.99,,2013-02-04 18:52:00,
2013-02-04 12:02:00,31.0,11.0,-100.00,NW,305,12.0,14.0,43,0.00,,,-99.99,,2013-02-04 19:02:00,
2013-02-04 12:11:00,30.0,11.0,-100.00,NW,305,10.0,14.0,44,0.00,,,-99.99,,2013-02-04 19:11:00,
2013-02-04 12:22:00,30.0,11.0,-100.00,WNW,300,10.0,13.0,44,0.00,,,-99.99,,2013-02-04 19:22:00,
2013-02-04 12:32:00,32.0,12.0,-100.00,WNW,295,9.0,12.0,43,0.00,,,-99.99,,2013-02-04 19:32:00,
2013-02-04 12:42:00,35.0,14.0,-100.00,WNW,290,7.0,12.0,41,0.00,,,-99.99,,2013-02-04 19:42:00,
2013-02-04 12:51:00,35.0,13.0,-100.00,WNW,285,7.0,9.0,40,0.00,,,-99.99,,2013-02-04 19:51:00,
2013-02-04 13:02:00,37.0,14.0,-100.00,WNW,300,6.0,9.0,38,0.00,,,-99.99,,2013-02-04 20:02:00,
2013-02-04 13:12:00,37.0,13.0,-100.00,WNW,295,4.0,11.0,36,0.00,,,-99.99,,2013-02-04 20:12:00,
2013-02-04 13:22:00,38.0,14.0,-100.00,WNW,295,7.0,11.0,35,0.00,,,-99.99,,2013-02-04 20:22:00,
2013-02-04 13:32:00,39.0,13.0,-100.00,WNW,295,7.0,13.0,34,0.00,,,-99.99,,2013-02-04 20:32:00,
2013-02-04 13:42:00,38.0,13.0,-100.00,West,280,9.0,13.0,34,0.00,,,-99.99,,2013-02-04 20:42:00,
2013-02-04 13:52:00,40.0,13.0,-100.00,WSW,255,8.0,12.0,33,0.00,,,-99.99,,2013-02-04 20:52:00,
2013-02-04 14:02:00,39.0,12.0,-100.00,West,280,9.0,15.0,32,0.00,,,-99.99,,2013-02-04 21:02:00,
2013-02-04 14:11:00,39.0,12.0,-100.00,West,275,12.0,17.0,33,0.00,,,-99.99,,2013-02-04 21:11:00,
2013-02-04 14:22:00,39.0,12.0,-100.00,WNW,285,9.0,17.0,33,0.00,,,-99.99,,2013-02-04 21:22:00,
2013-02-04 14:32:00,38.0,12.0,-100.00,WNW,285,10.0,17.0,32,0.00,,,-99.99,,2013-02-04 21:32:00,
2013-02-04 14:42:00,39.0,12.0,-100.00,WNW,285,7.0,16.0,32,0.00,,,-99.99,,2013-02-04 21:42:00,
2013-02-04 14:52:00,39.0,12.0,-100.00,West,265,8.0,13.0,32,0.00,,,-99.99,,2013-02-04 21:52:00,
2013-02-04 15:02:00,39.0,12.0,-100.00,West,280,10.0,14.0,32,0.00,,,-99.99,,2013-02-04 22:02:00,
2013-02-04 15:12:00,39.0,11.0,-100.00,WNW,285,14.0,18.0,31,0.00,,,-99.99,,2013-02-04 22:12:00,
2013-02-04 15:21:00,38.0,11.0,-100.00,WNW,290,16.0,21.0,31,0.00,,,-99.99,,2013-02-04 22:21:00,
2013-02-04 15:32:00,39.0,11.0,-100.00,WNW,285,12.0,24.0,31,0.00,,,-99.99,,2013-02-04 22:32:00,
2013-02-04 15:42:00,38.0,11.0,-100.00,WNW,295,13.0,19.0,31,0.00,,,-99.99,,2013-02-04 22:42:00,
2013-02-04 15:51:00,38.0,10.0,-100.00,WNW,285,16.0,23.0,30,0.00,,,-99.99,,2013-02-04 22:51:00,
2013-02-04 16:01:00,38.0,10.0,-100.00,WNW,295,16.0,27.0,30,0.00,,,-99.99,,2013-02-04 23:01:00,
2013-02-04 16:11:00,37.0,10.0,-100.00,WNW,285,17.0,24.0,30,0.00,,,-99.99,,2013-02-04 23:11:00,
2013-02-04 16:21:00,37.0,10.0,-100.00,West,280,15.0,21.0,31,0.00,,,-99.99,,2013-02-04 23:21:00,
2013-02-04 16:32:00,37.0,10.0,-100.00,WNW,290,22.0,25.0,31,0.00,,,-99.99,,2013-02-04 23:32:00,
2013-02-04 16:42:00,37.0,10.0,-100.00,WNW,285,18.0,26.0,31,0.00,,,-99.99,,2013-02-04 23:42:00,
2013-02-04 16:52:00,37.0,10.0,-100.00,WNW,295,17.0,24.0,31,0.00,,,-99.99,,2013-02-04 23:52:00,
2013-02-04 17:01:00,36.0,10.0,-100.00,WNW,295,20.0,25.0,32,0.00,,,-99.99,,2013-02-05 00:01:00,
2013-02-04 17:11:00,36.0,10.0,-100.00,WNW,295,16.0,25.0,32,0.00,,,-99.99,,2013-02-05 00:11:00,
2013-02-04 17:22:00,36.0,10.0,-100.00,WNW,295,15.0,24.0,33,0.00,,,-99.99,,2013-02-05 00:22:00,
2013-02-04 17:32:00,36.0,10.0,-100.00,WNW,295,14.0,24.0,33,0.00,,,-99.99,,2013-02-05 00:32:00,
2013-02-04 17:42:00,35.0,10.0,-100.00,WNW,295,12.0,25.0,34,0.00,,,-99.99,,2013-02-05 00:42:00,
2013-02-04 17:52:00,35.0,10.0,-100.00,WNW,295,12.0,18.0,35,0.00,,,-99.99,,2013-02-05 00:52:00,
2013-02-04 18:01:00,35.0,11.0,-100.00,WNW,295,9.0,18.0,36,0.00,,,-99.99,,2013-02-05 01:01:00,
2013-02-04 18:11:00,34.0,11.0,-100.00,WNW,300,11.0,17.0,37,0.00,,,-99.99,,2013-02-05 01:11:00,
2013-02-04 18:22:00,34.0,11.0,-100.00,WSW,255,6.0,13.0,38,0.00,,,-99.99,,2013-02-05 01:22:00,
2013-02-04 18:32:00,33.0,11.0,-100.00,SW,220,2.0,10.0,38,0.00,,,-99.99,,2013-02-05 01:32:00,
2013-02-04 18:42:00,33.0,11.0,-100.00,WNW,290,9.0,14.0,39,0.00,,,-99.99,,2013-02-05 01:42:00,
2013-02-04 18:52:00,34.0,11.0,-100.00,WNW,295,9.0,14.0,38,0.00,,,-99.99,,2013-02-05 01:52:00,
2013-02-04 19:01:00,33.0,11.0,-100.00,SW,215,5.0,12.0,38,0.00,,,-99.99,,2013-02-05 02:01:00,
2013-02-04 19:11:00,33.0,11.0,-100.00,West,270,4.0,8.0,39,0.00,,,-99.99,,2013-02-05 02:11:00,
2013-02-04 19:22:00,31.0,11.0,-100.00,SW,230,0.0,6.0,40,0.00,,,-99.99,,2013-02-05 02:22:00,
2013-02-04 19:32:00,32.0,11.0,-100.00,WNW,300,6.0,10.0,40,0.00,,,-99.99,,2013-02-05 02:32:00,
2013-02-04 19:42:00,32.0,11.0,-100.00,SSW,210,1.0,9.0,40,0.00,,,-99.99,,2013-02-05 02:42:00,
2013-02-04 19:52:00,31.0,11.0,-100.00,SSW,210,2.0,4.0,42,0.00,,,-99.99,,2013-02-05 02:52:00,
2013-02-04 20:02:00,30.0,11.0,-100.00,SSW,210,1.0,2.0,44,0.00,,,-99.99,,2013-02-05 03:02:00,
2013-02-04 20:11:00,29.0,11.0,-100.00,SSW,210,0.0,2.0,46,0.00,,,-99.99,,2013-02-05 03:11:00,
2013-02-04 20:21:00,28.0,11.0,-100.00,WSW,245,1.0,2.0,48,0.00,,,-99.99,,2013-02-05 03:21:00,
2013-02-04 20:32:00,27.0,11.0,-100.00,SSW,210,0.0,1.0,51,0.00,,,-99.99,,2013-02-05 03:32:00,
2013-02-04 20:42:00,26.0,12.0,-100.00,SSW,210,0.0,1.0,53,0.00,,,-99.99,,2013-02-05 03:42:00,
2013-02-04 20:51:00,26.0,12.0,-100.00,SE,125,2.0,3.0,55,0.00,,,-99.99,,2013-02-05 03:51:00,
2013-02-04 21:01:00,26.0,13.0,-100.00,South,175,2.0,3.0,57,0.00,,,-99.99,,2013-02-05 04:01:00,
2013-02-04 21:11:00,26.0,14.0,-100.00,SW,215,1.0,1.0,59,0.00,,,-99.99,,2013-02-05 04:11:00,
2013-02-04 21:21:00,25.0,13.0,-100.00,SSW,205,1.0,2.0,61,0.00,,,-99.99,,2013-02-05 04:21:00,
2013-02-04 21:32:00,24.0,13.0,-100.00,WNW,285,2.0,3.0,62,0.00,,,-99.99,,2013-02-05 04:32:00,
2013-02-04 21:42:00,23.0,13.0,-100.00,NNW,335,0.0,2.0,64,0.00,,,-99.99,,2013-02-05 04:42:00,
2013-02-04 21:52:00,22.0,12.0,-100.00,ESE,105,1.0,3.0,65,0.00,,,-99.99,,2013-02-05 04:52:00,
2013-02-04 22:02:00,21.0,12.0,-100.00,SE,145,0.0,3.0,66,0.00,,,-99.99,,2013-02-05 05:02:00,
2013-02-04 22:11:00,20.0,11.0,-100.00,SE,135,2.0,2.0,66,0.00,,,-99.99,,2013-02-05 05:11:00,
2013-02-04 22:22:00,20.0,11.0,-100.00,SE,130,3.0,4.0,68,0.00,,,-99.99,,2013-02-05 05:22:00,
2013-02-04 22:32:00,19.0,11.0,-100.00,ESE,115,2.0,3.0,69,0.00,,,-99.99,,2013-02-05 05:32:00,
2013-02-04 22:42:00,19.0,11.0,-100.00,ESE,115,2.0,3.0,69,0.00,,,-99.99,,2013-02-05 05:42:00,
2013-02-04 22:52:00,18.0,10.0,-100.00,ESE,115,3.0,4.0,70,0.00,,,-99.99,,2013-02-05 05:52:00,
2013-02-04 23:01:00,18.0,11.0,-100.00,SE,130,4.0,6.0,72,0.00,,,-99.99,,2013-02-05 06:01:00,
2013-02-04 23:11:00,18.0,11.0,-100.00,ESE,115,1.0,5.0,72,0.00,,,-99.99,,2013-02-05 06:11:00,
2013-02-04 23:21:00,17.0,10.0,-100.00,ESE,115,1.0,5.0,72,0.00,,,-99.99,,2013-02-05 06:21:00,
2013-02-04 23:32:00,17.0,10.0,-100.00,ESE,120,4.0,6.0,73,0.00,,,-99.99,,2013-02-05 06:32:00,
2013-02-04 23:42:00,17.0,10.0,-100.00,ESE,115,4.0,6.0,74,0.00,,,-99.99,,2013-02-05 06:42:00,
2013-02-04 23:52:00,16.0,10.0,-100.00,ESE,110,5.0,6.0,75,0.00,,,-99.99,,2013-02-05 06:52:00,